Location: Aragoneses
(41.0275°N, 4.3847°W)
Time: 14:50:30
(UTC+00:00)

Tiangong - Pass Details

Date: 18 February 2026
Orbit: 382 x 391 km, 41.5° (Epoch: 5 March)

Event Time Altitude Azimuth Distance (km) Brightness Sun altitude
Rises 18:47:44 0° 278° (W) 2,257 3.5 -10.5°
Reaches altitude 10° 18:49:49 10° 278° (W) 1,401 2.1 -10.9°
Maximum altitude 18:52:59 85° 189° (S) 387 -2.2 -11.5°
Enters shadow 18:55:02 20° 103° (ESE) 962 -0.7 -11.9°
